SCOUT A DEB, 2889

Orbit data source: Space-Track

SCOUT A DEB, 2889 is space debris in LEO originally from a launch on Fri, 28 Jan 1966 UTC launched from the Air Force Western Test Range (AFWTR). Debris objects in space refer to the collection of defunct objects orbiting the Earth. Examples of debris include non-operational satellites, rocket bodies, and fragments generated from explosions, collisions, or faulty payload assembly.

Loading next visibility...
Identifier
2889, 1966-005E
Orbit
LEO
Country
Flag of USUS
Related business
Manufacturer
Unknown
Mission
Spacecraft
Bus & Motor
Unknown
Mass
Unknown
Launch date (UTC)
1966-01-28 (60 years ago)
Launch vehicle
Unknown
Launch site
Air Force Western Test Range (AFWTR)
Object type
Payload
Rocket body
Debris
Shape & HBR
Unknown
Radar Cross Section
Small (<0.1 m²)

Expand to show TLE details & history
Last TLE update: 1 day ago

TLE from 1 day ago
0 SCOUT A DEB
1 02889U 66005E   25241.80944234  .00000018  00000-0  22819-4 0  9997
2 02889  89.5509 170.6140 0164565 234.1031 181.6612 13.17956520798014
Epoch: 2025-08-29T19:25Z
TLE epoch observation values (Epoch: 2025-08-29T19:25:35.818Z)
Latitude
55.79816°
Longitude
-98.38047°
Altitude
1,326.439 km
Speed
7.14 km/s
True Right ascension
11h 25m 05s
True Declination
55° 38' 60"
Sunlit
Object was in daylight at epoch
Visualization orbit readout
Latitude
Unknown
Longitude
Unknown
Altitude
Unknown
Speed
Unknown
Apparent Right ascension
Unknown
Apparent Declination
Unknown
Sunlit
N/A
Visualization observer readout
Local Sidereal Time
15:32:45
Azimuth
Unknown
Elevation
Unknown
Doppler factor
Unknown
Orbital elements
Apogee altitude
1,314.171 km
Perigee altitude
1,065.093 km
Semi-major axis
7,567.769 km
Eccentricity
0.01646
Inclination
89.5509°
RAAN
170.614°
Arg. of periapsis
234.1031°
True anomaly
181.60763°
Mean anomaly
181.6612°
Eccentric anomaly
181.63431°
Mean motion
3.29679 °/min
Orbital period
109.2 mins
BSTAR
0.000022819
Loading maneuver chart data...
Computing Atmospheric mass density...
Loading historical data...
Loading historical data...
Loading historical data...
Loading historical data...
Loading historical data...
Loading historical data...
Loading historical data...

Documentation

Showing up to 5 results
|